sat.trackr.live / text

‹ back to catalog

STARLINK-31953

NORAD 59898 · 2024-100P

PAYLOAD ACTIVE UNKNOWN

§ Identity

Operator
Country
US
Launch date
2024-05-28
Launch site
AFETR
Launch vehicle
Mass (kg)
RCS (m²)

Purposes: comms

External: N2YO · Heavens-Above · Gunter

§ Orbital elements

Epoch: 2026-09-21T21:32:16.120320Z

Period
94.27 min
Inclination
43.0014°
Eccentricity
0.0001168
Mean motion
15.27580391 rev/d
Perigee alt
482.2 km
Apogee alt
483.8 km
Semi-major
6,861.2 km
B*
3.5859e-5
RAAN
93.9186°
Arg perigee
266.9373°
Mean anomaly
93.1345°
Rev number
13,120

§ Raw data

STARLINK-319531 59898U 24100P   26264.89740880  .00000725  00000+0  35859-4 0  99972 59898  43.0014  93.9186 0001168 266.9373  93.1345 15.27580391131204

JSON: /api/v1/satellites/59898 · /tle

For live sub-satellite position, see the globe view (requires WebGL).

§ Visibility from observer

Set your observer location to see the next 7 days of passes ≥ 10°. The values pass through the URL so the page stays shareable.

No JS? Fill the form by hand. The geolocation button needs JavaScript.